Regional Weather Roundup
Issued by NWS

Home | Current Version | Previous Version | Graphics & Text | Print | Product List | Glossary On
Versions: 1 2 3 4 5 6 7 8 9 10 11 12 13 14 15 16 17 18 19 20 21 22 23 24 25 26 27 28 29 30 31 32 33 34 35 36 37 38 39 40 41 42 43 44 45 46 47 48 49 50
000
ASUS43 KMKX 070721
RWRWI

WISCONSIN REGIONAL WEATHER ROUNDUP
NATIONAL WEATHER SERVICE MILWAUKEE/SULLIVAN WI
200 AM CDT TUE JUL 07 2015

NOTE: "FAIR" INDICATES FEW OR NO CLOUDS BELOW 12,000 FEET WITH NO
SIGNIFICANT WEATHER AND/OR OBSTRUCTIONS TO VISIBILITY.

WIZ001-002-006>008-014>016-023>028-070800-
NORTHWEST WISCONSIN

CITY           SKY/WX    TMP DP  RH WIND       PRES   REMARKS
SUPERIOR ARPT  CLOUDY    57  44  63 N12       30.06R
ASHLAND        PTCLDY    51  46  83 NW6       30.04S
HAYWARD        CLEAR     52  45  77 N5        30.04S
SIREN          CLEAR     53  47  79 N5        30.06R
CUMBERLAND     PTCLDY    52  45  76 N8        30.03S
RICE LAKE      PTCLDY    55  46  72 N7        30.04S
CHETEK         CLEAR     56  48  76 NW6G21    30.03R
LADYSMITH      CLEAR     55  48  79 N9G21     30.03R
EAU CLAIRE     MOCLDY    58  50  75 N8        30.00R
MENOMONIE      CLEAR     57  49  76 NW9       30.02S
NEW RICHMOND   CLEAR     53  48  81 N6        30.05R
OSCEOLA        CLOUDY    55  49  78 NW7       30.08S
$$

WIZ003>005-009-010-017-018-070800-
NORTH CENTRAL WISCONSIN

CITY           SKY/WX    TMP DP  RH WIND       PRES   REMARKS
MANITOWISH WTR CLOUDY    52  48  87 N10       30.00S
ARBOR VITAE    CLOUDY    54  51  87 N12G18    29.99R
WOODRUFF       CLOUDY    54  51  87 N12G18    29.99R
RHINELANDER    CLOUDY    56  51  84 N12G21    29.98R
EAGLE RIVER    CLOUDY    54  52  94 N9G16     29.97R
LAND O LAKES   CLOUDY    53  48  83 N9G20     29.99R
PHILLIPS       CLEAR     52  49  90 N8        29.99S
TOMAHAWK       PTCLDY    53  50  91 NW7       29.98R
MEDFORD        PTCLDY    54  52  92 N9        29.98R FOG
MERRILL          N/A     54  54 100 N3        29.97R FOG
$$

WIZ029-030-035-036-043>047-070800-
CENTRAL WISCONSIN

CITY           SKY/WX    TMP DP  RH WIND       PRES   REMARKS
WAUSAU         MOCLDY    56  53  90 N5        29.95R FOG
MOSINEE        MOCLDY    54  54 100 N8        29.97R FOG
MARSHFIELD     CLEAR     57  52  83 N9        29.96R HAZE
STEVENS POINT  MOCLDY    55  54  95 NW5       29.96R FOG
WAUPACA        MOCLDY    63  58  82 NW6       29.93R HAZE
WAUTOMA        CLOUDY    63  58  83 N8        29.93R HAZE
WISC RAPIDS    CLEAR     58  53  84 N8        29.96R HAZE
CAMP DOUGLAS   PTCLDY    57  57 100 NW8       29.96R FOG
$$

WIZ011>013-019>022-031-037>040-048>050-070800-
NORTHEAST WISCONSIN

CITY           SKY/WX    TMP DP  RH WIND       PRES   REMARKS
ANTIGO         MOCLDY    56  54  93 N10       29.95R FOG
SHAWANO        CLOUDY    62  57  84 NW5       29.92R HAZE
OCONTO         CLOUDY    59  59 100 N5        29.90R
STURGEON BAY   CLOUDY    61  52  72 N17G23    29.92R
GREEN BAY      CLOUDY    62  57  83 N9        29.91R HAZE
MANITOWOC      LGT RAIN  59  57  94 MISG      29.89R FOG
APPLETON       CLOUDY    61  54  77 N9        29.92R HAZE
CLINTONVILLE   CLOUDY    61  55  82 N6        29.92R HAZE
OSHKOSH        CLOUDY    61  57  87 N10       29.91R FOG
$$

WIZ032>034-041-042-053>061-070800-
SOUTHWEST WISCONSIN

CITY           SKY/WX    TMP DP  RH WIND       PRES   REMARKS
LA CROSSE      CLOUDY    60  58  92 N3        29.98R FOG
SPARTA           N/A     53  52  96 CALM      29.98R FOG
VIROQUA        PTCLDY    57  57 100 N6        29.98R
BOSCOBEL       MOCLDY    61  56  83 VRB3      29.96R HAZE
PRAIRIE DU CHI MOCLDY    62  55  77 NW6       29.96S HAZE
PLATTEVILLE    CLOUDY    61  57  88 N9        29.93S
$$

WIZ056-057-062-063-064-067-068-070800-
SOUTH CENTRAL WISCONSIN

CITY           SKY/WX    TMP DP  RH WIND       PRES   REMARKS
REEDSBURG      MOCLDY    60  57  91 NW8       29.94R FOG
BARABOO/DELLS  CLOUDY    61  55  80 N8        29.94R HAZE
LONE ROCK      CLOUDY    61  56  83 NW6       29.95R HAZE
MINERAL POINT  MOCLDY    61  55  82 N10       29.94R HAZE
MADISON        CLOUDY    62  58  86 MISG      29.90S FOG
MIDDLETON      CLOUDY    63  58  84 N13       29.92S
WATERTOWN      CLOUDY    60  60 100 N9G21     29.88R FOG
MONROE         CLOUDY    61  57  88 N13G23    29.90S
JANESVILLE     CLOUDY    63  61  94 N10G17    29.88R FOG
$$

WIZ051-052-058>065-066-070>072-070800-
SOUTHEAST WISCONSIN

CITY           SKY/WX    TMP DP  RH WIND       PRES   REMARKS
MILWAUKEE      LGT RAIN  60  58  92 N22G30    29.85R
WAUKESHA       CLOUDY    61  59  94 N13G18    29.87R
MILWAUKEE/TIMM DRIZZLE   63  59  88 NE10G17   29.87R
RACINE         LGT RAIN  62  59  90 N24G36    29.85R
BURLINGTON     CLOUDY    63  62  96 NW15G22   29.84R
KENOSHA        CLOUDY    72  68  87 W10       29.81F
FOND DU LAC    LGT RAIN  61  59  93 N16       29.91R FOG
SHEBOYGAN      RAIN      59  57  93 N9        29.89R FOG
WEST BEND      CLOUDY    59  55  88 N14G20    29.88R
JUNEAU         DRIZZLE   59  57  96 N15G21    29.91R
$$

LSZ147-162-070800-
LAKE SUPERIOR

STATION/POSITION TIME  TEMP    WIND        PRES    WAVE
                       AIR SEA DIR/SP/G            HT/PER
                 (UTC) (F)     (DEG/KT/KT) (MB)    (FT/S)
W MID LAKE BUOY  0650   45 39  280/  8/  8 1016.2R   1/ 4
DEVILS ISLAND    0700   56     320/ 13/ 16 1017.1R
PORT WING        0640   58     320/ 11/ 13 1017.6R
SAXON HARBOR     0600   60     340/ 12/ 16 1016.3
$$

LMZ867-665-643>646-070800-
LAKE MICHIGAN

STATION/POSITION TIME  TEMP    WIND        PRES    WAVE
                       AIR SEA DIR/SP/G            HT/PER
                 (UTC) (F)     (DEG/KT/KT) (MB)    (FT/S)
CHAMBERS ISLAND  0600   61     340/ 19/ 23 1012.2R
N MID LAKE BUOY  0650   56 56  320/ 14/ 16 1011.2R   2/ 5
NORTHPORT PIER   0613   60     350/ 18/ 25 1011.5S
SISTER BAY       0614   58     360/ 17/ 25   N/A
ALGOMA LAKESHORE 0611          360/  7/ 12   N/A
KEWAUNEE LAKESHO 0700   60     360/  8/ 12 1011.2R
SHEBOYGAN LAKESH 0700   56     360/ 13/ 13 1012.0R
PORT WASHINGTON  0640   61      30/ 10/ 13 1011.9R
ATWATER BUOY     0700   60 58   20/ 19/ 23 1012.1R
MILWAUKEE LAKESH 0700   60      10/ 17/ 22   N/A
KENOSHA   LAKESH 0700   74     250/  8/ 13 1009.1S
$$

TC  - TEMPERATURE IN CELSIUS
VSB - VISIBILITY IN STATUTE MILES
WCI - WIND CHILL INDEX
HX  - HEAT INDEX



USA.gov is the U.S. government's official web portal to all federal, state and local government web resources and services.